New Philadelphia, OH

6:20 PM EDT on May 27, 2018 (GMT -0400)
Clever

Weather History for KPHD - February, 2012

Change the Weather History Date:

Tuesday, February 7, 2012

  Actual Average Record
Temperature  
Mean Temperature 32 °F 30 °F  
Max Temperature 39 °F 39 °F 62 °F (2017)
Min Temperature 24 °F 21 °F -6 °F (1979)
Degree Days  
Heating Degree Days 33 35  
Month to date heating degree days 202 245  
Since 1 July heating degree days 1492 3517  
Cooling Degree Days 0 0  
Month to date cooling degree days 0 0  
Year to date cooling degree days 0 0  
Moisture  
Dew Point 25 °F    
Average Humidity 72    
Maximum Humidity 85    
Minimum Humidity 59    
Precipitation  
Precipitation 0.00 in 0.09 in 0.84 in (1974)
Month to date precipitation 0.33 0.54  
Year to date precipitation 2.96 3.14  
Sea Level Pressure  
Sea Level Pressure 30.24 in    
Wind  
Wind Speed 3 mph (NNE)    
Max Wind Speed 9 mph    
Max Gust Speed 13 mph    
Visibility 9 miles    
Events      
T = Trace of Precipitation, MM = Missing Value Source: NWS Daily Summary

Daily Weather History Graph

Daily Weather History Graph

Search for Another Location

Airport or City:

Astronomy

Feb. 07, 2012 Rise Set
Actual Time 7:29 AM EST 5:50 PM EST
Civil Twilight 7:01 AM EST 6:19 PM EST
Nautical Twilight 6:28 AM EST 6:51 PM EST
Astronomical Twilight 5:56 AM EST 7:23 PM EST
Moon 6:00 PM EST (2/7) 6:57 AM EST (2/7)
Length of Visible Light 11h 18m
Length of Day
10h 21m
Full, 100% of the Moon is Illuminated
Feb 7
Full
Feb 7
Full
Feb 14
Last Quarter
Feb 21
New
Feb 29
First Quarter

Hourly Weather History & Observations

Time (EST) Temp. Windchill Dew Point Humidity Pressure Visibility Wind Dir Wind Speed Gust Speed Precip Events Conditions
12:53 AM 27.0 °F - 21.9 °F 81% 30.16 in 10.0 mi Calm Calm - N/A   Clear
1:53 AM 26.1 °F - 21.0 °F 81% 30.16 in 10.0 mi Calm Calm - N/A   Clear
2:53 AM 26.1 °F - 21.0 °F 81% 30.17 in 10.0 mi Calm Calm - N/A   Clear
3:53 AM 25.0 °F - 19.9 °F 81% 30.15 in 10.0 mi Calm Calm - N/A   Clear
4:40 AM 26.6 °F - 21.2 °F 80% 30.15 in 10.0 mi Calm Calm - N/A   Mostly Cloudy
4:53 AM 28.0 °F - 24.1 °F 85% 30.18 in 10.0 mi Calm Calm - N/A   Overcast
5:53 AM 30.0 °F - 25.0 °F 82% 30.19 in 10.0 mi Calm Calm - N/A   Overcast
6:53 AM 33.1 °F 30.0 °F 26.1 °F 75% 30.21 in 8.0 mi NW 3.5 mph - N/A   Overcast
7:53 AM 33.1 °F 27.7 °F 26.1 °F 75% 30.22 in 6.0 mi North 5.8 mph - N/A   Haze
8:53 AM 32.0 °F 27.5 °F 25.0 °F 75% 30.26 in 7.0 mi North 4.6 mph - N/A   Overcast
9:53 AM 33.1 °F 30.0 °F 25.0 °F 72% 30.26 in 7.0 mi NNW 3.5 mph - N/A   Overcast
10:53 AM 35.1 °F - 24.1 °F 64% 30.27 in 9.0 mi Calm Calm - N/A   Overcast
11:53 AM 36.0 °F - 24.1 °F 62% 30.26 in 9.0 mi Calm Calm - N/A   Overcast
12:53 PM 37.0 °F 32.4 °F 24.1 °F 59% 30.25 in 10.0 mi Variable 5.8 mph - N/A   Overcast
1:53 PM 37.0 °F 34.5 °F 24.1 °F 59% 30.24 in 10.0 mi NNE 3.5 mph - N/A   Overcast
2:53 PM 37.9 °F - 24.1 °F 57% 30.25 in 10.0 mi Calm Calm - N/A   Overcast
3:25 PM 37.4 °F 33.8 °F 24.8 °F 60% 30.22 in 10.0 mi North 4.6 mph - N/A   Overcast
3:53 PM 37.9 °F 35.5 °F 25.0 °F 60% 30.26 in 10.0 mi North 3.5 mph - N/A   Overcast
4:53 PM 37.9 °F 34.4 °F 25.0 °F 60% 30.27 in 9.0 mi NNE 4.6 mph - N/A   Overcast
5:16 PM 37.4 °F 33.8 °F 26.6 °F 65% 30.23 in 8.0 mi NNE 4.6 mph - N/A   Overcast
5:53 PM 37.0 °F 31.6 °F 27.0 °F 67% 30.27 in 8.0 mi NNE 6.9 mph - N/A   Overcast
6:08 PM 37.4 °F 32.8 °F 26.6 °F 65% 30.24 in 8.0 mi NNE 5.8 mph - N/A   Overcast
6:23 PM 37.4 °F 33.8 °F 26.6 °F 65% 30.25 in 8.0 mi North 4.6 mph - N/A   Overcast
6:53 PM 36.0 °F 32.1 °F 27.0 °F 70% 30.27 in 8.0 mi North 4.6 mph - N/A   Overcast
7:04 PM 35.6 °F 29.9 °F 26.6 °F 70% 30.25 in 8.0 mi NNE 6.9 mph - N/A   Overcast
7:53 PM 36.0 °F 32.1 °F 27.0 °F 70% 30.27 in 9.0 mi NNE 4.6 mph - N/A   Overcast
8:40 PM 35.6 °F 31.7 °F 26.6 °F 70% 30.26 in 10.0 mi NNE 4.6 mph - N/A   Overcast
8:53 PM 35.1 °F 31.0 °F 27.0 °F 72% 30.29 in 10.0 mi NNE 4.6 mph - N/A   Overcast
9:33 PM 35.6 °F 29.9 °F 26.6 °F 70% 30.26 in 10.0 mi NE 6.9 mph - N/A   Overcast
9:53 PM 35.1 °F 30.1 °F 26.1 °F 70% 30.29 in 10.0 mi NE 5.8 mph - N/A   Overcast
10:37 PM 35.6 °F 30.7 °F 26.6 °F 70% 30.27 in 10.0 mi NE 5.8 mph - N/A   Overcast
10:53 PM 34.0 °F 26.6 °F 27.0 °F 75% 30.30 in 10.0 mi NNE 9.2 mph - N/A   Overcast
11:53 PM 34.0 °F 31.0 °F 27.0 °F 75% 30.30 in 10.0 mi Variable 3.5 mph - N/A   Overcast